Theta_e
301 297 296 299 300 300 298 297 297 301 299 295 297 298 301 305 305 305 305 305 305 305 307 308 307 304 303 302 301 304 307 308 308 307 305 304 304 307 310 311 310 310 309 309
296 294 300 300 299 298 296 295 296 300 297 294 297 296 301 303 301 302 303 303 303 305 305 305 304 303 302 301 302 306 307 307 307 307 305 304 305 307 309 312 312 309 309 309
296 298 299 297 295 294 295 295 295 294 296 298 294 298 303 301 300 301 301 302 302 303 304 303 302 302 302 301 304 305 306 307 307 306 306 306 309 311 311 310 310 310 310 310
296 300 295 295 294 296 293 298 296 293 293 292 295 291 293 302 300 299 299 301 301 301 304 303 301 301 301 303 306 306 306 306 306 306 304 304 305 306 308 310 311 310 311 311
294 294 294 294 296 298 295 295 294 293 292 292 293 290 299 301 297 298 300 300 301 301 303 302 301 300 301 303 306 307 307 306 306 305 303 304 305 308 310 310 311 311 312 312
295 296 297 296 294 296 296 293 293 293 292 288 293 291 298 302 297 296 299 299 300 301 302 301 301 299 300 303 305 307 306 305 305 304 304 304 305 306 308 308 309 314 316 317
292 292 294 295 292 294 294 291 291 288 285 287 288 287 295 300 297 296 299 299 300 301 300 299 297 297 299 302 304 305 305 305 305 304 304 304 304 307 307 307 308 309 316 318
288 286 291 294 294 292 291 292 289 284 286 288 286 285 295 297 299 297 300 301 300 300 300 299 298 297 299 301 304 304 304 304 304 304 303 304 303 306 307 308 308 308 309 312
288 288 292 293 293 294 291 287 292 287 283 284 289 293 298 295 295 296 297 300 299 299 299 299 298 297 298 300 303 304 304 303 303 303 303 303 302 303 306 307 307 308 308 309
291 286 289 290 293 293 291 293 286 287 284 282 289 289 292 292 293 295 296 297 300 300 299 299 298 296 298 300 303 304 304 303 303 303 303 302 301 302 303 306 306 305 307 307
294 292 287 289 288 288 287 287 288 290 289 285 285 290 296 296 295 296 298 299 300 301 300 299 298 297 297 300 302 303 304 304 303 302 303 303 301 303 302 304 304 305 305 305
294 292 287 287 291 293 292 290 290 286 285 286 284 289 296 295 294 295 297 300 301 302 301 300 298 297 296 298 301 302 303 304 304 302 302 302 300 301 301 302 303 302 303 304
293 289 284 284 287 288 287 290 291 292 288 285 285 290 295 294 293 295 297 298 300 300 301 300 299 296 295 297 300 302 303 304 304 303 302 300 299 299 299 300 302 300 301 301
295 290 289 287 288 290 284 287 289 289 285 287 288 293 294 295 295 296 296 299 299 299 299 299 298 296 295 296 298 301 302 304 303 302 301 300 298 297 297 298 299 298 299 298
291 285 287 289 290 289 288 287 288 286 289 288 292 291 296 299 297 298 299 299 298 298 298 298 298 297 296 295 297 300 302 302 303 301 301 298 296 296 294 295 296 296 297 296
291 285 285 283 288 288 284 288 289 289 290 290 292 291 297 299 301 299 299 298 297 297 298 299 299 298 296 295 296 299 301 301 301 300 299 298 294 293 293 293 293 295 296 296
288 286 284 284 284 284 283 286 289 290 291 291 287 293 297 296 297 299 300 301 299 298 299 299 299 299 297 296 296 297 300 302 299 299 299 297 295 293 291 291 293 294 296 297
285 285 285 284 283 278 291 292 293 292 293 294 294 295 297 297 299 301 301 300 299 299 299 300 300 301 300 298 296 297 300 300 297 297 297 296 295 293 290 290 291 293 294 294
290 287 284 282 282 286 289 289 290 289 283 288 287 289 293 297 297 297 301 301 301 301 301 302 302 301 301 298 297 296 298 299 296 296 296 295 294 292 291 290 291 291 291 290
289 289 285 284 281 280 280 284 288 292 284 285 286 287 288 291 290 295 300 301 300 298 298 297 298 298 298 299 297 295 297 297 296 296 295 293 292 292 291 290 289 288 289 287
283 284 281 283 283 283 280 284 287 284 279 283 284 285 285 287 294 294 295 294 295 295 295 295 296 296 296 297 295 293 295 295 298 296 293 291 291 290 291 290 288 287 286 285
277 275 280 283 282 278 282 282 278 280 283 282 282 282 283 287 291 292 293 292 293 293 293 293 293 294 294 294 292 291 292 295 296 295 292 290 289 288 288 287 286 285 285 285
276 276 273 276 276 282 283 282 284 284 282 282 281 282 281 283 285 286 289 290 290 289 289 290 290 290 291 290 291 290 292 292 293 291 289 288 287 287 287 287 285 285 285 285
278 279 275 275 281 281 282 283 282 283 282 283 282 281 280 279 282 282 283 285 285 285 285 286 287 287 288 288 287 289 290 290 287 287 288 287 287 286 286 287 286 286 285 285
276 277 275 276 279 281 282 282 280 281 281 280 280 280 280 279 278 279 281 281 281 281 282 283 283 283 285 286 286 288 287 286 287 287 288 288 288 287 287 287 287 286 287 287
278 276 275 274 279 279 279 280 278 278 278 277 276 276 278 279 277 277 277 278 279 279 279 278 279 279 280 282 284 285 285 285 286 286 287 289 289 289 289 288 287 289 289 288
Wind_Speed
7 8 10 14 15 16 9 11 14 11 4 6 13 20 22 20 21 22 19 16 16 16 12 12 11 9 7 5 1 4 6 6 6 6 7 6 6 8 6 2 5 3 3 5
6 12 12 2 9 10 11 12 12 10 1 4 14 23 24 17 9 9 10 10 12 13 14 11 11 9 6 4 2 3 5 5 5 5 5 3 6 7 7 6 1 2 2 3
14 1 2 8 9 11 12 11 4 8 7 12 13 13 6 5 5 6 6 4 4 10 14 13 12 10 7 5 2 3 5 5 5 6 5 5 6 5 4 6 3 3 3 1
12 10 7 9 14 12 13 3 6 6 6 6 3 10 6 9 8 8 7 7 7 9 13 13 12 10 7 4 3 2 4 4 4 5 5 8 5 4 4 5 2 4 4 3
5 9 10 11 6 11 1 2 3 3 6 8 7 5 7 4 5 4 5 5 5 9 13 13 11 9 6 5 2 2 4 3 4 5 5 6 6 5 4 4 6 7 5 6
3 1 6 4 5 1 9 3 3 3 4 5 4 5 4 4 1 3 5 6 8 11 12 12 10 8 6 4 3 1 3 2 3 4 5 7 6 6 5 6 5 4 6 6
7 7 4 4 6 4 6 5 2 3 4 5 2 5 12 4 3 3 8 10 10 11 12 12 11 9 7 5 3 1 2 2 3 4 4 5 6 6 6 6 4 6 4 6
12 9 15 13 9 6 12 5 5 6 4 3 2 8 6 2 1 5 7 11 12 12 11 11 10 8 7 5 4 3 1 2 2 3 3 3 4 2 3 4 3 3 4 4
9 8 3 7 2 3 9 9 3 4 2 4 8 9 11 8 6 9 9 12 13 13 12 12 10 9 8 7 6 4 2 0 1 1 1 2 3 3 3 3 2 2 3 2
4 4 5 5 3 5 4 4 4 4 5 7 6 6 11 5 9 11 13 13 14 13 13 12 11 10 8 7 6 5 4 3 3 3 3 2 2 3 2 2 3 4 3 3
11 8 7 5 12 14 7 7 7 3 5 4 4 5 1 2 2 11 12 13 13 15 14 13 11 10 9 8 7 7 6 5 4 4 4 4 0 3 1 1 2 2 4 3
19 7 9 8 3 6 14 14 17 7 6 6 2 8 3 2 2 1 5 10 12 12 13 13 12 12 11 10 9 8 7 6 5 4 4 4 3 2 2 1 3 2 3 3
13 6 5 3 4 4 9 14 16 13 3 9 6 4 1 3 3 4 3 10 10 11 13 12 12 12 12 11 10 10 9 8 6 5 6 5 4 3 2 2 3 3 2 3
7 3 10 9 3 8 9 17 19 18 8 7 16 11 6 5 6 7 7 10 11 11 12 12 12 13 12 11 12 11 10 10 8 6 6 6 6 4 3 1 1 3 3 4
3 5 5 12 8 4 5 11 21 26 24 13 7 21 19 7 7 8 8 9 10 13 15 16 14 13 13 12 11 11 10 10 8 7 7 6 5 4 3 3 2 3 4 4
5 3 1 4 7 8 5 11 16 24 22 25 20 16 7 10 7 11 9 8 10 13 14 14 14 13 13 13 13 11 12 11 9 8 7 6 5 5 4 4 4 3 3 5
6 4 5 5 2 2 10 20 18 14 14 21 23 18 16 13 11 13 13 12 13 12 11 13 15 15 14 15 14 14 13 11 10 8 7 8 7 6 5 5 4 5 4 4
4 4 3 1 5 8 3 4 5 21 15 17 17 16 17 13 12 12 7 8 10 11 10 9 8 10 12 12 14 13 13 12 11 10 8 8 7 7 6 5 5 5 4 5
9 4 4 5 6 8 7 6 4 8 6 21 18 19 21 20 12 14 14 12 13 8 6 4 3 5 7 12 13 14 14 13 12 12 10 9 9 8 7 7 6 5 4 4
14 10 6 4 5 8 8 17 16 11 8 21 21 19 23 19 11 8 11 2 4 2 2 1 1 3 6 7 11 14 14 15 15 14 12 10 9 9 9 7 6 3 3 3
2 3 12 11 6 3 17 17 11 8 7 18 20 19 20 16 13 13 8 7 7 5 6 6 3 4 5 4 9 12 13 16 15 12 11 11 10 9 9 8 4 5 5 5
4 5 3 4 7 4 22 10 8 8 9 15 19 18 21 20 18 18 11 11 11 11 10 9 6 4 2 1 6 9 12 9 8 10 11 12 11 9 7 8 5 5 5 5
1 4 4 5 3 3 10 11 7 8 10 16 16 18 18 20 20 20 18 17 15 15 11 10 9 6 4 1 3 5 5 5 7 7 8 8 8 7 7 9 9 6 6 6
1 3 2 6 4 7 6 5 8 9 9 9 11 12 15 17 18 17 15 15 15 15 15 14 13 11 9 7 4 4 3 3 5 5 6 6 9 9 8 6 7 8 9 8
8 6 3 7 5 4 5 9 8 8 8 10 10 10 12 12 14 16 14 14 13 14 14 14 13 11 11 11 8 5 3 4 5 5 5 7 7 8 8 9 10 10 11 12
4 4 3 4 4 5 6 7 6 8 9 10 12 14 14 10 11 12 12 13 14 14 13 13 14 14 14 12 11 8 4 4 5 6 6 7 7 8 8 8 8 13 13 15
Wind_Direction
196 216 212 222 224 259 293 278 276 281 115 284 265 277 282 279 269 260 253 247 238 210 206 182 176 165 166 158 159 325 338 350 353 353 350 333 331 323 320 316 291 255 213 228
179 236 235 207 276 242 249 266 274 281 148 266 296 292 285 286 276 274 256 246 240 213 191 171 170 166 174 151 161 352 1 354 0 353 343 305 309 294 287 316 295 84 204 224
233 128 295 192 212 223 229 247 263 280 310 252 295 276 263 206 229 225 219 210 218 220 185 181 178 172 166 163 134 23 17 358 6 356 332 330 314 321 342 335 74 122 129 172
243 239 180 204 229 223 255 230 244 280 305 297 16 289 299 268 263 215 219 202 195 198 186 178 174 169 172 149 142 44 29 8 5 7 343 338 313 348 318 331 18 102 99 163
177 183 202 214 221 195 162 124 216 250 270 314 184 257 263 252 268 184 180 170 170 177 181 171 170 166 154 163 131 49 35 19 12 19 356 338 340 342 331 351 345 109 99 82
280 36 217 238 90 232 125 162 209 247 263 246 178 235 277 236 189 138 140 146 152 158 159 163 155 155 169 166 160 66 32 2 25 31 4 340 354 342 356 15 4 112 124 131
186 200 150 160 135 137 196 201 238 232 213 255 137 227 260 256 215 188 162 154 155 158 159 161 168 178 179 188 166 97 355 346 353 53 22 347 344 346 1 8 4 18 82 118
202 202 186 179 219 180 193 233 235 256 241 22 136 235 252 42 95 137 153 153 156 167 172 177 180 181 181 189 191 180 314 349 331 64 28 360 343 349 341 23 3 36 42 354
199 216 102 197 161 200 155 213 2 296 112 269 236 246 265 171 183 186 165 167 175 179 181 183 182 186 187 194 201 190 194 303 251 144 59 46 334 345 357 17 63 51 42 25
226 205 206 141 196 215 245 127 159 223 229 248 230 249 252 202 218 198 194 191 186 183 184 187 188 191 195 196 198 195 192 209 223 201 168 108 321 316 349 357 35 69 66 70
218 236 128 154 207 185 173 205 225 277 239 257 281 237 54 306 159 197 203 198 190 187 187 189 190 193 195 197 203 207 204 198 214 194 179 156 157 290 359 54 44 36 71 61
211 241 203 200 65 286 244 213 204 215 192 241 349 259 140 133 135 226 245 185 193 188 187 188 191 189 193 201 207 212 209 208 196 193 186 165 156 268 275 135 117 44 90 75
169 209 146 248 208 194 224 212 236 239 324 208 193 237 162 158 212 214 216 173 180 187 187 190 190 194 197 201 208 211 209 213 195 198 191 171 165 188 240 217 150 123 140 126
199 216 229 224 57 136 198 204 207 213 221 211 228 252 168 200 213 204 194 185 178 185 191 194 198 202 203 202 203 208 208 209 194 194 195 187 178 181 170 256 225 147 151 167
228 258 235 263 265 227 232 210 206 215 221 217 241 227 246 231 214 194 184 182 187 196 199 200 199 201 202 203 204 205 208 206 199 192 194 191 170 159 146 159 200 190 166 160
189 244 268 260 251 238 257 242 224 224 230 248 265 266 289 302 263 214 240 242 226 220 216 207 201 199 202 201 202 199 201 200 199 198 200 173 165 157 160 163 159 189 162 148
168 185 181 234 138 152 265 230 224 221 219 230 237 247 263 261 255 259 264 243 229 231 214 205 205 203 199 200 194 197 194 184 192 197 188 184 174 169 162 155 173 160 172 170
183 184 192 199 144 211 260 80 247 221 229 238 259 258 268 286 285 279 232 255 234 227 217 218 214 212 203 194 194 192 186 182 184 190 185 182 177 171 156 165 167 158 158 165
205 191 219 226 211 321 285 36 331 172 96 18 359 345 326 309 293 276 260 254 260 222 218 239 254 262 238 188 193 189 183 180 181 188 185 180 181 169 167 180 179 170 159 144
210 208 218 178 235 224 40 332 329 303 154 10 354 344 345 328 284 303 351 244 285 1 13 333 254 256 248 201 187 192 188 183 188 187 181 171 171 172 177 179 167 158 163 152
285 225 221 228 228 101 340 328 301 197 3 352 352 347 339 336 318 340 355 17 28 26 13 2 344 282 264 206 186 198 198 200 194 175 162 165 171 177 179 168 154 159 151 137
348 328 321 251 228 203 353 34 51 350 349 353 352 351 342 330 339 351 358 6 7 8 12 0 340 356 336 168 188 204 213 206 195 174 173 174 175 175 168 158 151 152 152 156
211 38 309 354 32 11 68 84 76 10 358 357 350 351 349 346 354 358 359 4 6 8 1 355 352 343 9 44 236 225 238 204 187 174 178 175 167 170 166 167 166 159 168 179
23 147 275 327 168 324 329 77 36 4 354 353 351 344 353 352 353 351 354 3 1 358 356 350 353 360 3 1 318 268 284 184 148 176 178 168 179 182 180 182 180 182 184 187
270 294 292 269 269 277 40 15 13 4 2 351 350 346 348 350 353 350 347 351 352 349 349 349 350 345 345 344 339 328 247 160 170 179 190 192 193 194 197 206 196 200 209 198
241 271 266 299 61 321 351 359 17 349 351 351 342 337 336 346 343 342 342 344 346 343 344 345 342 339 338 336 329 327 311 193 188 200 195 204 198 196 210 211 224 227 229 207